www.pogodaiklimat.ru

Погода и климат >> Архив погоды >> Иран >> Nehbandan


ПОГОДА в Nehbandan

  • Прогноз погоды в Nehbandan
  • Монитор погоды в Nehbandan
  • Климат города

АРХИВ ПОГОДЫ в Nehbandan

Время (UTC), дата Ветер
(напр.,м/с)
 
Видим.   Явления Облачность Т
(С)
Тd
(С)
f
(%)
Тe
(С)
Тes
(С)
Комфортность P
(гПа)
Po
(гПа)
Тmin
(С)
Tmax
(С)
R
(мм)
R24
(мм)
S
(см)
12 13.09 С 6 20 км 6/6 1050 м
[Cu Sc]
+32.3 -6.3 8 +28 +29 жарко 1004.6 879.5
15 13.09 В 4 15 км 3/1 1000 м
[Cu hum Ac trans]
+28.1 -4.1 12 +25 +25 комфорт 1005.8 880.4 +34.5
18 13.09 СЗ 2 15 км ясно +25.6 -3.8 14 +23 +23 комфорт 1006.5 881.2
21 13.09 штиль 0 15 км ясно +22.4 -2.9 18 +21 +21 комфорт 1006.3 880.7
00 14.09 В 2 15 км ясно +19.3 -2.8 22 +20 +20 1006.6 880.7
03 14.09 ЮЗ 2 20 км ясно +20.4 -6.6 16 +21 +22 комфорт 1008.7 881.9 +18.0
06 14.09 СЗ 2 20 км ясно +28.4 -18.0 4 +24 +37 комфорт 1008.2 882.4
09 14.09 СВ 5 20 км ясно +31.3 -20.0 3 +27 +35 жарко 1006.3 880.7
12 14.09 штиль 0 20 км ясно +32.3 -20.2 3 +27 +33 жарко 1005.6 879.7
15 14.09 СВ 5 15 км ясно +27.2 -14.2 6 +23 +23 комфорт 1006.8 880.0 +32.7
18 14.09 СВ 4 15 км ясно +24.5 -13.2 7 +21 +21 комфорт 1007.4 881.5
21 14.09 СЗ 3 15 км ясно +23.3 -16.4 6 +20 +20 1006.8 880.9
00 15.09 СЗ 3 15 км ясно +20.1 -25.2 3 +19 +19 1006.7 880.8
03 15.09 штиль 0 20 км ясно +22.5 -32.1 2 +20 +21 1008.8 882.1 +17.2
06 15.09 С 6 20 км ясно +28.3 -35.8 1 +24 +28 комфорт 1008.9 882.7
09 15.09 С 5 20 км ясно +31.0 -34.9 1 +26 +34 жарко 1006.7 881.1
12 15.09 СВ 3 20 км ясно +31.7 -30.4 1 +27 +30 жарко 1006.1 880.1
15 15.09 СВ 4 15 км ясно +26.4 -14.6 6 +23 +23 комфорт 1007.5 880.8 +32.0
18 15.09 С 9 12 км ясно +23.5 -11.2 9 +21 +21 комфорт 1007.8 881.7
21 15.09 Ю 3 15 км ясно +19.7 -9.8 13 +20 +20 1007.4 881.8
00 16.09 В 2 15 км ясно +17.7 -9.2 15 +18 +18 1007.4 880.9
03 16.09 штиль 0 20 км ясно +20.0 -9.4 13 +19 +21 1009.1 881.8 +16.4
06 16.09 штиль 0 20 км ясно +27.4 -15.3 5 +23 +40 комфорт 1009.2 882.7
09 16.09 В 2 20 км ясно +31.2 -18.0 3 +26 +42 жарко 1007.7 881.4
12 16.09 штиль 0 20 км ясно +32.2 -19.1 3 +27 +33 жарко 1007.3 880.8
15 16.09 В 3 15 км ясно +26.6 -17.8 4 +23 +23 комфорт 1008.6 881.3 +33.1
18 16.09 СВ 2 15 км ясно +23.5 -13.6 7 +21 +21 комфорт 1008.9 882.5
21 16.09 СВ 2 15 км ясно +20.3 -10.4 12 +20 +20 1008.3 882.0
00 17.09 З 2 15 км ясно +17.5 -10.5 14 +18 +18 1008.4 881.8
03 17.09 Ю 3 20 км ясно +18.1 -10.5 13 +18 +19 1010.5 882.7 +16.4
06 17.09 С 4 20 км ясно +27.8 -16.2 5 +24 +32 комфорт 1009.8 883.3
09 17.09 ЮВ 2 20 км ясно +31.3 -18.7 3 +27 +42 жарко 1008.4 882.1
12 17.09 В 6 20 км ясно +32.5 -25.9 2 +28 +29 жарко 1007.4 880.9
15 17.09 СВ 2 15 км ясно +26.6 -19.1 4 +23 +23 комфорт 1009.0 881.3 +32.9
18 17.09 В 2 15 км ясно +21.1 -15.9 7 +19 +19 1009.1 882.2
21 17.09 штиль 0 15 км ясно +20.0 -13.7 9 +19 +19 1008.7 882.0
00 18.09 штиль 0 15 км ясно +15.5 -11.0 15 +16 +16 1009.0 882.0
03 18.09 штиль 0 20 км ясно +18.2 -10.9 13 +18 +20 1011.1 883.2 +14.1
06 18.09 штиль 0 20 км ясно +26.7 -14.3 6 +23 +39 комфорт 1011.1 883.8
09 18.09 ЮЗ 4 20 км ясно +30.4 -18.9 3 +26 +36 жарко 1008.5 882.0
12 18.09 штиль 0 20 км ясно +31.7 -17.8 3 +27 +32 жарко 1007.8 880.7
15 18.09 штиль 0 15 км ясно +26.4 -14.7 6 +23 +23 комфорт 1008.9 881.2 +32.0
18 18.09 С 4 15 км ясно +23.6 -13.1 8 +21 +21 комфорт 1008.6 882.1
21 18.09 З 2 15 км ясно +19.6 -11.5 11 +20 +20 1008.3 881.9
00 19.09 штиль 0 15 км ясно +16.3 -10.4 15 +16 +16 1008.6 881.7
03 19.09 штиль 0 20 км ясно +19.7 -10.5 12 +19 +20 1010.3 882.8 +14.3
06 19.09 В 3 20 км ясно +26.1 -11.1 8 +23 +33 комфорт 1010.0 883.2
09 19.09 штиль 0 20 км ясно +29.7 -18.8 3 +25 +45 комфорт 1008.1 881.4
12 19.09 В 2 20 км ясно +31.4 -19.1 3 +27 +31 жарко 1007.2 880.3
15 19.09 В 2 15 км ясно +25.7 -12.7 7 +22 +22 комфорт 1008.1 880.7 +31.8
18 19.09 С 7 15 км ясно +23.5 -9.8 10 +21 +21 комфорт 1008.3 881.7
21 19.09 С 5 15 км ясно +22.2 -7.9 13 +20 +20 881.2
00 20.09 С 7 15 км ясно +21.3 -9.6 12 +20 +20 1006.4 880.7
03 20.09 СЗ 6 20 км ясно +22.2 -9.1 11 +20 +21 1008.2 881.3 +20.8
06 20.09 СЗ 10 17 км ясно +26.0 -10.0 9 +23 +23 комфорт 1008.2 881.6

 

Местоположение метеостанции Nehbandan (Иран): широта 31.53 долгота 60.03 высота над уровнем моря 1211 м.

В архиве по умолчанию представлена погода в Nehbandan за последнюю неделю. Архивные данные за месяц целиком и за предыдущие месяцы, начиная с января 2011 года, Вы можете получить, выбрав интересующий диапазон дат из раскрывающегося списка и нажав кнопку "Ввод!".

Внимание! Время в таблицах - всемирное. Для получения местного времени необходимо прибавить поправку, которая в Nehbandan равна 3.5 ч.

Смотрите также архив погоды в соседних городах и на ближайших метеорологических станциях:

Погода в Zabol (Иран) (148 км)
Погода в Birjand (Иран) (168 км)
Погода в Zahedan (Иран) (243 км)
Погода в Bam (Иран) (312 км)
Погода в Kerman (Иран) (325 км)
Погода в Ferdous (Иран) (327 км)
Погода в Heart (Афганистан) (362 км)
Погода в Tabas (Иран) (371 км)
Погода в Nokkundi (Пакистан) (399 км)
Погода в Baft (Иран) (419 км)

Пояснения к столбцам:

Ветер - указаны скорость ветра в м/с - средняя за 10 мин, порывы в срок и между сроками (в фигурных скобках) и направление, откуда дует ветер: С - северный, СВ - северо-восточный, В - восточный, ЮВ - юго-восточный, Ю - южный, ЮЗ - юго-западный, З - западный, СЗ - северо-западный.
Видимость - горизонтальная дальность видимости в метрах или километрах. При видимости от 1 до 10 км при отсутствии осадков обычно наблюдается дымка, при ухудшении видимости до 1 км и менее - туман. В сухую погоду видимость может ухудшаться дымом, пылью или мглою.
Явления - указаны атмосферные явления, наблюдавшиеся в срок или в последний час перед сроком; фигурными скобками обозначены явления, наблюдавшиеся между сроками (за 1-3 часа до срока); квадратными скобками обозначены град или гололедные отложения с указанием их диаметра в мм.
Облачность - указаны через наклонную черту общая и нижняя облачность в баллах и высота нижней границы облаков в метрах; квадратными скобками обозначены формы облаков: Ci - перистые, Cs - перисто-слоистые, Cc - перисто-кучевые, Ac - высококучевые, As - высокослоистые, Sc - слоисто-кучевые, Ns - слоисто-дождевые, Cu - кучевые, Cb - кучево-дождевые. Подробнее классификацию облаков см. в Атласе облаков (PDF).
T - Температура воздуха - температура, измеренная на высоте 2 м над землей.
Td - Температура точки росы - температура, при понижении до которой содержащийся в воздухе водяной пар достигнет насыщения.
f - Относительная влажность воздуха - влажноcть воздуха, измеренная на высоте 2 м над землей.
Te - Эффективная температура - температура, которую ощущает одетый по сезону человек в тени. Характеристика душности погоды. При расчете учитывается влияние влажности воздуха и скорости ветра на теплоощущения человека.
Tes - Эффективная температура на солнце - температура, которую ощущает человек, с поправкой на солнечный нагрев. Характеристика знойности погоды. Зависит от высоты солнца над горизонтом, облачности и скорости ветра. Ночью, в пасмурную погоду, а также при ветре 12 м/с и более поправка равна нулю.
P - Атмосферное давление - приведенное к уровню моря атмосферное давление.
Po - Атмосферное давление - измеренное на уровне метеостанции атмосферное давление.
Tmin - Минимальная температура - минимум температуры воздуха на высоте 2 м над землей.
Tmax - Максимальная температура - максимум температуры воздуха на высоте 2 м над землей.
R - Количество осадков - Количество выпавших осадков за период времени, мм. При наведении курсора мыши на число - период времени, за который выпало указанное количество осадков.
R24 - Количество осадков - Количество выпавших осадков за 24 часа, мм.
S - Снежный покров - Высота снежного покрова, см. При наведении курсора мыши на число - состояние снежного покрова и степень покрытия местности в баллах.